Temperature
11 11 11 11 12 12 12 12 12 12 12 12 12 12 12 13 12 12 12 12 12 12 12 12 12 12 12 12 12 12 12 11 11 11 11 11 11 11 10 10 10 9 9
11 11 11 11 11 11 11 11 11 11 11 11 12 12 12 12 12 12 12 12 12 12 12 12 12 12 12 12 12 12 11 11 11 11 11 11 11 11 10 10 10 9 9
10 10 10 10 10 10 10 10 11 11 11 11 11 11 11 11 12 11 11 11 12 12 11 11 11 11 11 11 11 11 11 11 11 11 11 11 11 10 10 10 10 9 9
9 9 9 9 10 10 10 10 10 10 10 10 10 11 11 11 11 11 11 11 11 11 11 11 11 11 11 11 11 11 11 11 11 11 11 10 10 10 10 10 10 9 9
9 9 9 9 9 9 9 9 9 9 9 10 10 10 10 10 10 10 10 10 10 10 10 10 11 11 11 11 11 11 10 10 10 10 10 10 10 10 10 10 9 9 9
8 8 8 8 8 8 8 9 9 9 9 9 9 9 9 9 10 10 10 10 10 10 10 10 10 10 10 10 10 10 10 10 10 10 10 10 10 10 10 9 9 9 9
8 8 8 8 8 8 8 8 8 8 8 8 8 8 8 9 9 9 9 9 9 9 9 9 9 10 10 10 10 10 10 10 10 10 10 10 10 10 9 9 9 9 9
7 7 7 7 7 7 7 7 7 7 7 7 7 7 7 7 8 8 8 9 9 9 9 9 9 9 9 9 10 10 10 9 9 9 9 9 9 9 9 9 9 9 9
7 7 7 7 7 7 7 7 7 7 7 7 7 6 6 6 7 7 8 8 8 8 8 9 8 8 9 9 9 9 9 9 9 9 9 9 9 9 9 9 8 8 8
7 7 7 7 6 6 6 7 7 7 7 6 6 7 7 6 6 6 7 7 7 8 8 8 8 8 8 8 9 9 9 9 9 9 9 9 9 9 8 8 8 8 8
6 6 6 6 6 6 6 6 6 6 6 6 6 6 6 6 6 6 6 7 7 7 7 7 7 8 8 8 8 8 8 8 8 8 8 8 8 8 8 8 8 8 7
6 6 6 6 6 6 6 6 6 6 6 6 6 6 6 6 6 6 6 6 6 7 7 7 7 7 7 7 8 8 8 8 8 8 8 8 8 8 8 8 7 7 7
6 6 6 6 6 6 6 6 6 6 6 6 6 6 6 6 6 6 6 5 5 6 6 7 7 7 7 7 7 7 7 7 7 7 7 7 7 7 7 7 7 7 7
6 6 6 6 6 6 6 6 6 6 6 6 6 6 5 5 5 5 5 5 5 5 6 6 6 6 6 6 7 7 7 7 7 7 7 7 7 7 7 7 7 6 6
5 6 6 6 6 6 6 6 6 6 5 5 5 6 5 5 5 5 5 5 5 4 5 6 6 6 6 6 6 6 6 6 7 6 6 6 6 6 6 6 6 6 6
5 5 5 5 6 6 5 5 5 5 5 5 5 5 5 5 5 5 5 5 5 5 4 5 5 5 5 5 6 6 6 6 6 6 6 6 6 6 6 6 6 6 5
5 5 5 5 5 5 5 5 5 5 5 5 5 5 5 5 5 5 5 5 5 4 4 4 5 5 5 5 5 6 6 6 6 6 6 5 5 5 5 5 5 5 5
5 5 5 5 5 5 5 5 5 5 5 4 4 4 4 4 4 4 4 4 4 4 4 4 4 5 5 5 5 5 5 5 5 5 5 5 5 5 5 5 5 5 5
5 5 5 5 5 5 4 4 4 4 4 4 4 4 4 4 4 4 4 4 4 4 4 4 4 4 4 4 4 5 5 5 5 5 5 5 5 5 4 5 4 4 4
5 5 4 4 4 4 4 4 4 4 4 4 4 4 4 4 4 4 4 4 4 4 4 4 4 4 4 4 4 4 4 4 4 4 4 4 4 4 4 4 4 4 4
4 4 4 4 4 4 4 4 3 3 3 3 3 3 3 3 3 3 3 3 3 3 3 3 3 3 3 4 3 3 3 3 4 3 4 4 4 3 3 4 4 4 3
4 4 4 4 4 4 4 3 3 3 3 3 3 3 3 3 3 3 3 3 3 3 3 3 3 3 3 3 3 3 2 2 2 3 3 3 3 3 3 3 3 3 3
4 4 4 3 3 3 3 3 3 3 3 3 3 3 3 3 3 3 3 2 2 2 2 2 2 2 2 2 2 2 2 2 2 2 2 2 2 2 2 2 3 3 3
4 4 3 3 3 3 3 3 3 3 3 3 3 2 2 2 2 2 2 2 2 2 2 2 2 2 2 2 2 1 1 1 1 1 1 1 2 2 2 2 2 2 2
4 3 3 3 3 3 3 3 2 2 2 2 2 2 2 2 2 2 2 2 2 2 2 2 2 1 1 1 1 1 1 1 1 1 1 1 1 1 1 1 1 1 1
3 3 3 3 3 3 3 2 2 2 2 2 2 2 2 2 2 1 1 1 1 1 1 1 1 1 1 1 1 1 1 1 0 0 0 0 0 -0 -0 -0 0 0 1
Wind_Speed
2 2 2 1 1 1 1 2 2 3 3 3 3 4 4 4 4 5 6 8 9 9 10 9 10 10 11 11 11 11 12 12 11 12 11 11 12 12 12 11 11 10 10
1 2 3 2 2 2 2 2 3 4 3 3 4 5 5 5 5 5 6 7 9 9 10 10 10 11 11 11 11 11 12 13 13 12 12 12 12 13 13 13 12 12 11
2 2 3 3 3 3 2 2 3 3 3 3 4 5 5 5 5 6 6 6 7 9 10 11 11 11 12 12 11 11 12 12 12 13 13 13 13 13 13 14 14 13 13
4 3 3 4 4 3 2 3 3 3 4 4 4 4 4 4 5 6 5 5 5 6 8 10 11 11 12 12 12 12 11 12 12 13 14 14 14 14 14 14 15 15 14
5 4 4 4 4 3 3 4 3 3 4 4 4 4 4 4 5 5 5 5 5 6 6 8 10 11 12 12 12 12 12 12 13 13 13 14 14 15 15 14 15 16 15
5 4 4 4 3 4 4 4 4 3 3 4 4 4 4 4 4 5 5 4 5 6 5 6 6 8 10 12 13 12 12 13 13 14 14 14 15 15 16 15 15 15 16
6 5 5 4 4 4 5 5 4 3 2 2 1 2 2 3 4 4 4 4 4 4 4 5 5 5 7 10 12 13 13 13 14 14 14 15 14 15 15 16 15 15 15
6 5 5 5 5 4 5 5 4 3 2 3 2 1 1 2 2 3 3 4 4 3 4 5 5 6 6 6 9 13 14 14 14 14 14 15 15 15 15 15 15 15 16
6 6 6 6 6 5 5 5 5 5 4 3 3 3 2 3 2 2 3 3 3 3 3 3 4 6 6 6 7 10 13 14 15 15 15 15 15 15 15 15 15 14 14
6 6 6 6 6 5 6 6 5 5 5 5 3 3 3 3 2 2 2 2 3 4 4 4 4 6 7 7 8 11 12 14 15 16 15 15 15 15 15 15 15 15 13
5 5 5 5 6 5 6 6 5 5 5 5 4 2 2 1 2 2 4 3 3 3 4 4 4 5 6 7 7 10 12 13 14 15 15 15 15 15 15 14 14 14 13
4 4 5 5 5 5 6 6 6 6 5 5 4 4 3 3 3 2 3 4 4 4 4 4 4 4 5 6 7 11 12 12 13 13 13 14 14 15 15 14 13 13 12
3 4 4 4 5 5 6 5 5 5 6 6 5 5 4 3 3 3 3 3 4 4 3 3 3 4 4 5 7 10 11 12 12 12 12 12 12 13 13 12 12 12 12
4 4 4 4 5 5 5 4 4 5 5 6 6 5 4 3 3 3 3 3 3 4 4 4 3 3 3 5 7 9 9 11 12 11 11 11 12 12 13 12 12 11 11
4 4 4 4 4 4 4 4 4 5 5 5 5 5 4 3 3 3 3 3 3 4 6 4 3 3 3 4 7 7 8 11 11 11 11 10 11 11 12 11 11 10 10
4 4 3 4 4 3 3 4 3 4 4 4 4 4 3 2 2 2 3 3 3 4 5 4 3 4 4 5 7 6 8 11 11 10 10 10 10 10 10 10 10 10 9
4 4 4 4 3 3 3 3 3 4 4 3 3 3 3 2 2 2 2 2 2 2 5 5 3 4 4 5 5 6 7 6 8 10 10 10 9 9 9 9 8 8 7
4 3 3 3 2 2 2 3 3 3 4 4 3 3 3 2 2 2 2 2 2 2 4 6 5 4 4 5 5 5 5 5 5 8 9 9 8 8 8 6 6 6 6
2 2 2 2 2 2 2 3 3 3 3 3 3 3 3 3 3 2 2 2 2 3 3 4 5 4 3 3 4 5 4 3 4 7 7 7 7 6 6 5 5 5 5
1 1 2 1 1 1 2 2 2 2 2 2 2 3 3 4 4 4 3 3 2 2 2 3 4 4 3 3 3 4 4 3 4 4 5 5 5 5 5 5 5 4 4
1 1 0 0 1 1 1 1 1 1 2 1 1 1 2 2 2 2 2 2 2 2 2 2 3 4 3 3 3 2 3 4 4 2 3 3 3 3 4 5 4 4 4
1 1 1 1 1 1 1 1 1 0 1 1 0 0 1 1 2 3 3 3 3 2 2 3 3 4 4 4 3 3 3 3 4 2 2 4 2 3 3 3 3 3 3
1 1 1 0 1 1 1 2 2 1 1 0 0 0 1 2 3 1 2 3 4 4 4 3 4 4 4 4 3 3 3 3 4 4 3 4 2 3 3 4 3 1 1
1 1 1 1 1 2 2 2 3 2 2 1 1 0 0 1 1 1 1 2 3 3 4 3 3 4 4 3 3 3 3 3 3 3 2 2 2 2 3 2 1 2 2
2 2 2 2 2 2 3 3 3 2 2 2 1 1 0 0 2 2 1 1 2 3 4 3 3 3 3 4 2 1 1 1 3 3 1 0 1 2 2 1 1 3 3
2 2 3 2 2 2 3 3 3 1 2 2 2 2 2 1 2 3 1 0 2 3 2 3 4 4 3 3 4 2 2 2 2 2 1 1 1 1 2 2 1 2 2
Wind_Direction
258 274 271 277 258 273 262 260 226 216 214 215 218 212 208 213 224 232 237 244 244 246 248 250 247 243 242 239 235 231 227 228 227 225 224 226 225 225 225 227 229 231 235
256 267 268 272 264 246 249 249 238 221 216 219 227 219 217 218 227 236 240 244 243 243 248 251 254 253 250 247 243 238 235 233 232 229 229 230 229 230 229 229 231 232 235
251 262 263 262 262 247 247 263 252 227 221 227 234 223 218 220 224 235 241 243 242 242 246 252 260 260 259 254 251 246 242 241 239 236 234 234 234 234 235 233 232 233 235
248 250 253 259 265 245 237 244 239 242 230 228 235 231 228 226 227 231 236 238 238 241 247 256 263 266 265 261 259 253 250 247 245 242 239 237 238 238 239 238 235 234 235
250 246 248 257 261 253 235 240 241 237 238 237 237 233 225 229 231 234 234 239 239 240 244 259 264 267 269 266 263 261 257 254 251 248 245 242 241 241 241 243 241 237 237
253 249 250 254 253 251 244 231 233 235 237 234 244 249 240 238 231 227 230 238 243 246 246 255 261 268 271 271 269 267 268 262 258 256 251 249 245 244 244 244 245 243 240
251 250 251 248 242 241 238 232 225 225 238 215 213 288 291 251 236 234 226 231 242 249 246 250 251 257 268 274 270 269 270 269 267 264 260 255 252 248 247 246 249 247 245
249 250 237 239 239 242 239 232 217 215 234 198 174 164 298 304 268 239 234 234 245 248 248 256 252 253 257 264 268 269 270 272 271 269 268 264 257 254 252 251 250 251 249
254 247 240 237 237 233 233 229 217 209 222 217 190 171 190 234 292 267 239 237 241 248 252 257 256 257 259 261 264 266 268 270 272 271 271 273 264 259 259 256 254 255 255
259 254 244 237 238 237 232 228 224 216 210 213 212 208 204 194 203 285 295 264 254 255 256 266 258 260 257 259 262 264 265 265 271 271 270 271 271 265 264 262 258 256 258
258 257 250 237 236 240 234 228 228 222 211 207 206 199 205 225 208 214 269 287 287 254 252 257 254 259 260 258 262 265 265 267 269 273 272 273 273 271 265 267 268 264 258
264 255 248 237 238 240 235 230 226 220 212 203 203 200 196 205 209 210 243 265 282 281 270 258 256 260 265 262 269 275 268 268 270 273 276 277 277 277 270 269 273 269 262
277 262 257 244 243 241 235 228 224 218 206 200 204 212 213 218 217 215 226 261 284 291 283 267 254 254 269 275 276 284 273 270 272 273 275 276 276 279 273 273 273 274 270
264 263 255 250 246 241 234 222 218 215 205 204 212 210 214 220 217 218 215 229 283 292 284 274 276 254 275 278 284 293 284 274 273 273 274 276 275 275 272 271 272 271 276
265 262 259 257 253 238 226 213 217 216 206 207 205 207 212 218 215 223 218 205 216 272 285 283 291 289 294 291 292 296 291 279 277 276 275 276 276 273 271 270 268 269 272
263 264 262 258 255 238 220 212 216 215 207 209 208 199 203 215 217 216 219 226 220 236 270 281 283 302 304 302 304 302 296 293 284 278 277 275 276 275 273 269 267 266 265
256 254 253 253 250 234 211 207 217 207 207 212 206 189 200 202 206 222 231 229 231 233 261 287 290 300 303 302 308 312 304 296 291 284 281 279 280 276 273 271 264 261 257
250 252 253 247 237 222 207 208 213 207 201 202 205 195 205 207 209 222 231 238 239 242 250 276 294 300 296 299 305 308 306 306 301 296 292 290 286 281 276 269 265 259 256
257 259 247 231 225 214 211 216 208 204 204 202 203 200 203 192 226 238 239 244 248 259 253 259 283 295 297 301 311 309 305 305 307 307 304 300 296 287 280 276 268 259 257
271 274 254 236 228 218 218 217 202 194 195 202 212 209 209 207 215 222 235 238 246 253 250 262 281 292 295 297 299 303 318 321 313 314 313 308 311 307 296 288 270 260 257
303 296 276 306 262 224 228 208 196 208 192 203 227 229 233 240 247 249 246 232 230 243 256 269 280 293 295 305 306 307 311 321 317 308 318 314 322 314 305 296 272 252 250
356 13 43 33 337 293 278 296 284 179 183 189 201 25 341 324 307 298 289 278 271 264 255 265 279 282 290 292 297 299 306 322 312 322 323 307 308 293 291 286 268 265 255
19 11 5 37 0 347 355 357 3 35 104 90 72 62 351 345 341 356 334 327 323 309 283 268 266 271 270 269 275 292 299 299 288 299 316 299 313 301 296 292 277 234 160
19 11 353 346 1 342 9 33 30 46 65 56 46 299 52 330 315 305 334 348 335 323 307 294 260 271 272 267 257 263 272 294 298 303 308 284 320 317 315 295 201 132 99
21 19 15 27 27 2 26 36 23 64 63 36 17 19 75 266 291 312 352 347 331 325 329 325 303 303 302 305 298 289 285 302 301 305 316 355 347 340 341 353 42 79 69
30 27 22 29 43 30 17 21 16 69 60 22 7 354 337 322 309 321 328 333 322 315 336 358 1 357 349 343 343 325 267 257 278 290 301 355 325 6 357 350 20 19 40
Height
1475 1475 1475 1476 1476 1477 1478 1478 1479 1480 1481 1482 1483 1484 1485 1487 1488 1489 1490 1492 1493 1494 1495 1495 1496 1497 1497 1498 1498 1499 1500 1501 1501 1501 1502 1502 1502 1502 1502 1503 1503 1502 1502
1471 1471 1471 1471 1472 1473 1473 1474 1475 1475 1476 1477 1478 1480 1481 1482 1483 1484 1486 1487 1488 1489 1490 1491 1492 1492 1493 1493 1494 1494 1495 1496 1497 1497 1498 1498 1498 1498 1498 1498 1498 1498 1498
1467 1467 1467 1467 1467 1468 1469 1470 1470 1471 1472 1473 1474 1475 1476 1477 1478 1480 1481 1482 1484 1485 1486 1487 1487 1488 1488 1489 1489 1490 1490 1491 1492 1492 1493 1493 1494 1494 1494 1494 1494 1494 1494
1463 1463 1462 1462 1463 1464 1464 1465 1465 1466 1467 1468 1469 1470 1471 1472 1474 1475 1476 1477 1479 1480 1481 1482 1483 1483 1484 1484 1485 1485 1485 1486 1486 1487 1487 1488 1489 1489 1489 1489 1489 1489 1489
1459 1458 1458 1458 1459 1459 1459 1460 1460 1461 1462 1463 1464 1465 1466 1467 1469 1470 1471 1473 1474 1475 1476 1477 1478 1479 1479 1480 1480 1480 1481 1481 1481 1481 1482 1482 1482 1483 1484 1484 1484 1484 1484
1454 1454 1454 1454 1454 1454 1454 1455 1456 1457 1458 1459 1459 1460 1460 1462 1463 1465 1466 1468 1470 1471 1471 1472 1473 1473 1474 1475 1475 1475 1475 1475 1476 1476 1476 1476 1476 1477 1478 1478 1478 1478 1479
1450 1449 1449 1449 1450 1449 1450 1451 1451 1452 1453 1454 1455 1455 1455 1457 1458 1460 1461 1463 1465 1466 1467 1468 1468 1468 1469 1469 1470 1470 1470 1470 1470 1470 1470 1470 1470 1471 1471 1472 1472 1472 1473
1445 1445 1444 1444 1445 1445 1445 1446 1447 1447 1448 1450 1450 1451 1451 1452 1452 1455 1456 1458 1460 1461 1462 1463 1464 1464 1464 1464 1464 1464 1464 1465 1464 1464 1464 1464 1464 1464 1464 1465 1466 1466 1467
1440 1440 1440 1440 1440 1440 1440 1441 1442 1443 1443 1445 1447 1448 1449 1447 1447 1449 1451 1453 1455 1456 1457 1458 1458 1459 1459 1459 1458 1459 1459 1459 1458 1458 1458 1458 1458 1458 1458 1458 1459 1460 1460
1435 1435 1435 1435 1435 1435 1435 1436 1437 1438 1440 1440 1442 1443 1445 1445 1445 1444 1446 1448 1450 1450 1452 1453 1453 1453 1453 1453 1453 1452 1453 1453 1452 1452 1452 1452 1452 1452 1452 1453 1453 1453 1453
1431 1431 1431 1431 1431 1431 1431 1431 1432 1434 1435 1436 1437 1438 1440 1441 1442 1442 1441 1442 1443 1445 1447 1447 1447 1447 1447 1447 1447 1447 1446 1446 1446 1446 1446 1446 1446 1446 1446 1446 1446 1447 1447
1426 1426 1426 1426 1426 1426 1426 1427 1428 1429 1431 1432 1433 1434 1436 1437 1437 1438 1437 1437 1438 1439 1441 1441 1442 1441 1442 1442 1441 1441 1440 1440 1440 1440 1440 1440 1440 1439 1440 1439 1440 1441 1441
1422 1422 1422 1422 1422 1422 1423 1423 1424 1425 1426 1427 1429 1431 1432 1433 1434 1434 1434 1434 1434 1434 1435 1435 1436 1437 1436 1436 1436 1435 1434 1434 1434 1434 1434 1434 1434 1434 1434 1433 1434 1435 1435
1419 1418 1418 1418 1418 1418 1419 1419 1420 1421 1422 1423 1425 1426 1428 1429 1431 1431 1431 1431 1430 1429 1429 1430 1431 1432 1431 1431 1430 1430 1429 1429 1428 1428 1428 1428 1428 1428 1428 1427 1428 1429 1429
1416 1415 1415 1415 1415 1415 1415 1416 1416 1417 1418 1419 1420 1422 1423 1425 1426 1427 1428 1428 1428 1426 1424 1424 1426 1427 1427 1426 1426 1425 1424 1423 1423 1423 1423 1422 1422 1422 1421 1421 1422 1422 1423
1413 1412 1412 1412 1412 1412 1412 1412 1413 1413 1414 1415 1416 1418 1419 1421 1422 1423 1424 1424 1425 1424 1422 1421 1422 1422 1422 1422 1421 1420 1419 1418 1418 1417 1417 1417 1416 1416 1415 1415 1416 1416 1417
1410 1410 1409 1409 1408 1409 1409 1409 1409 1410 1411 1411 1413 1414 1415 1417 1418 1419 1419 1420 1421 1421 1419 1417 1418 1418 1417 1417 1415 1415 1414 1413 1412 1412 1411 1411 1411 1410 1410 1410 1410 1411 1411
1408 1407 1407 1406 1405 1406 1406 1406 1407 1407 1408 1408 1409 1411 1412 1413 1414 1415 1416 1416 1416 1417 1417 1413 1413 1413 1413 1413 1411 1410 1409 1408 1407 1407 1406 1406 1405 1405 1404 1404 1404 1405 1406
1405 1405 1404 1404 1403 1403 1404 1404 1404 1404 1405 1406 1407 1407 1408 1409 1410 1411 1412 1412 1413 1413 1413 1411 1409 1409 1409 1408 1407 1406 1404 1403 1403 1402 1402 1401 1400 1399 1399 1399 1399 1400 1401
1403 1403 1402 1402 1402 1402 1402 1402 1402 1402 1402 1403 1404 1405 1405 1406 1407 1408 1408 1409 1409 1409 1409 1407 1406 1405 1405 1404 1403 1401 1399 1399 1398 1398 1397 1396 1395 1394 1394 1394 1394 1395 1396
1402 1401 1401 1400 1400 1400 1400 1400 1400 1400 1400 1400 1401 1402 1403 1404 1404 1405 1405 1405 1406 1406 1405 1404 1403 1402 1401 1401 1400 1398 1397 1395 1394 1394 1393 1392 1391 1390 1389 1390 1390 1391 1392
1400 1400 1399 1399 1398 1398 1398 1398 1398 1398 1398 1398 1399 1400 1400 1401 1401 1402 1403 1403 1403 1403 1402 1402 1400 1399 1398 1398 1397 1396 1394 1392 1390 1391 1389 1388 1387 1386 1386 1386 1386 1387 1387
1399 1398 1397 1397 1397 1397 1397 1396 1396 1397 1396 1396 1396 1397 1397 1398 1399 1399 1399 1399 1399 1399 1400 1399 1397 1396 1396 1395 1394 1393 1392 1390 1388 1388 1386 1383 1384 1383 1383 1383 1383 1383 1383
1397 1396 1396 1396 1395 1395 1395 1395 1395 1395 1395 1395 1395 1395 1396 1396 1397 1397 1396 1396 1395 1395 1395 1395 1394 1393 1393 1392 1392 1391 1390 1388 1386 1385 1384 1382 1381 1380 1380 1380 1380 1380 1381
1396 1395 1395 1394 1394 1394 1394 1394 1394 1393 1393 1393 1394 1394 1394 1394 1395 1395 1394 1393 1392 1392 1392 1392 1391 1390 1390 1390 1389 1389 1387 1386 1384 1383 1383 1381 1380 1379 1378 1378 1379 1379 1379
1395 1394 1394 1394 1393 1392 1393 1393 1393 1392 1392 1392 1392 1392 1393 1393 1392 1392 1392 1391 1390 1389 1389 1388 1388 1387 1387 1387 1387 1386 1385 1384 1383 1382 1381 1381 1379 1378 1377 1377 1377 1378 1378